Newark, NJ

2:18 PM EDT on March 25, 2017 (GMT -0400)
Newark International

Weather History for KEWR - December, 2014

Change the Weather History Date:

Thursday, December 11, 2014

  Actual Average Record
Temperature  
Mean Temperature 35 °F 38 °F  
Max Temperature 39 °F 45 °F 65 °F (1966)
Min Temperature 31 °F 31 °F 11 °F (1977)
Degree Days  
Heating Degree Days 30 27  
Month to date heating degree days 282 279  
Since 1 July heating degree days 1114 1147  
Cooling Degree Days 0 0  
Month to date cooling degree days 0 0  
Year to date cooling degree days 1175 1192  
Moisture  
Dew Point 25 °F    
Average Humidity 68    
Maximum Humidity 85    
Minimum Humidity 50    
Precipitation  
Precipitation T in 0.13 in 2.04 in (1992)
Month to date precipitation 3.12 1.44  
Year to date precipitation 47.54 43.88  
Snow  
Snow 0.20 in 0.10 in 3.70 in (1960)
Month to date snowfall 0.3 1.2  
Since 1 July snowfall 1.7 1.6  
Snow Depth T in    
Sea Level Pressure  
Sea Level Pressure 29.75 in    
Wind  
Wind Speed 15 mph (WSW)    
Max Wind Speed 23 mph    
Max Gust Speed 29 mph    
Visibility 9 miles    
Events Snow    
T = Trace of Precipitation, MM = Missing Value Source: NWS Daily Summary

Daily Weather History Graph

Daily Weather History Graph

Search for Another Location

Airport or City:

Trip Planner

Search our weather history database for the weather conditions in past years. The results will help you decide how hot, cold, wet, or windy it might be!

Date:

Astronomy

Dec. 11, 2014 Rise Set
Actual Time 7:10 AM EST 4:29 PM EST
Civil Twilight 6:39 AM EST 5:00 PM EST
Nautical Twilight 6:05 AM EST 5:34 PM EST
Astronomical Twilight 5:32 AM EST 6:07 PM EST
Moon 9:38 PM EST (12/11) 10:31 AM EST (12/11)
Length of Visible Light 10h 20m
Length of Day
9h 18m
Waning Gibbous, 75% of the Moon is Illuminated
Dec 11
Waning Gibbous
Dec 14
Last Quarter
Dec 21
New
Dec 28
First Quarter
Jan 4
Full

Hourly Weather History & Observations

Time (EST) Temp. Windchill Dew Point Humidity Pressure Visibility Wind Dir Wind Speed Gust Speed Precip Events Conditions
12:51 AM 33.1 °F 23.4 °F 23.0 °F 66% 29.63 in 10.0 mi West 13.8 mph 25.3 mph 0.00 in   Overcast
1:37 AM 30.2 °F 18.5 °F 24.8 °F 80% 29.64 in 2.0 mi West 17.3 mph 26.5 mph 0.00 in Snow Light Snow
1:51 AM 30.9 °F 20.2 °F 25.0 °F 79% 29.65 in 2.5 mi West 15.0 mph - 0.00 in Snow Light Snow
2:27 AM 30.2 °F 19.3 °F 26.6 °F 86% 29.65 in 7.0 mi WSW 15.0 mph 23.0 mph 0.00 in Snow Light Snow
2:51 AM 30.9 °F 19.4 °F 26.1 °F 82% 29.66 in 7.0 mi WSW 17.3 mph 24.2 mph 0.00 in Snow Light Snow
3:51 AM 32.0 °F 20.1 °F 25.0 °F 75% 29.65 in 10.0 mi West 19.6 mph 28.8 mph 0.00 in Snow Light Snow
4:51 AM 32.0 °F 21.6 °F 24.1 °F 73% 29.66 in 10.0 mi West 15.0 mph 25.3 mph N/A   Overcast
5:51 AM 32.0 °F 20.8 °F 24.1 °F 73% 29.68 in 10.0 mi West 17.3 mph - N/A   Overcast
6:51 AM 32.0 °F 22.5 °F 23.0 °F 69% 29.70 in 10.0 mi WSW 12.7 mph - N/A   Overcast
7:51 AM 32.0 °F 21.2 °F 23.0 °F 69% 29.72 in 10.0 mi WSW 16.1 mph - N/A   Mostly Cloudy
8:51 AM 33.1 °F 20.9 °F 21.9 °F 64% 29.74 in 10.0 mi West 21.9 mph 27.6 mph N/A   Mostly Cloudy
9:51 AM 35.1 °F 24.8 °F 23.0 °F 61% 29.76 in 10.0 mi West 17.3 mph 26.5 mph N/A   Mostly Cloudy
10:51 AM 37.0 °F 27.4 °F 24.1 °F 59% 29.75 in 10.0 mi WSW 17.3 mph 21.9 mph N/A   Mostly Cloudy
11:32 AM 35.6 °F 26.2 °F 24.8 °F 65% 29.76 in 7.0 mi West 15.0 mph 23.0 mph 0.00 in Snow Light Snow
11:49 AM 35.6 °F 25.5 °F 24.8 °F 65% 29.76 in 9.0 mi West 17.3 mph - 0.00 in Snow Light Snow
11:51 AM 35.1 °F 24.5 °F 25.0 °F 67% 29.76 in 9.0 mi West 18.4 mph 24.2 mph 0.00 in Snow Light Snow
12:51 PM 36.0 °F 27.1 °F 25.0 °F 64% 29.75 in 10.0 mi WSW 13.8 mph - 0.00 in   Overcast
1:51 PM 37.0 °F 27.7 °F 23.0 °F 57% 29.75 in 10.0 mi West 16.1 mph - N/A   Mostly Cloudy
2:51 PM 39.0 °F 30.3 °F 23.0 °F 53% 29.76 in 10.0 mi WSW 16.1 mph 23.0 mph N/A   Mostly Cloudy
3:51 PM 36.0 °F 27.5 °F 24.1 °F 62% 29.78 in 10.0 mi SW 12.7 mph - N/A   Mostly Cloudy
4:51 PM 35.1 °F 26.4 °F 27.0 °F 72% 29.80 in 10.0 mi WSW 12.7 mph - N/A   Mostly Cloudy
5:51 PM 33.1 °F 24.9 °F 27.0 °F 78% 29.82 in 10.0 mi SW 10.4 mph - N/A   Mostly Cloudy
6:51 PM 33.1 °F 23.9 °F 28.0 °F 82% 29.84 in 10.0 mi WSW 12.7 mph - N/A   Mostly Cloudy
7:51 PM 34.0 °F 25.0 °F 28.0 °F 79% 29.85 in 10.0 mi WSW 12.7 mph - N/A   Mostly Cloudy
8:51 PM 34.0 °F 25.5 °F 28.0 °F 79% 29.86 in 10.0 mi West 11.5 mph - N/A   Mostly Cloudy
9:51 PM 33.1 °F 26.1 °F 28.0 °F 82% 29.87 in 10.0 mi WSW 8.1 mph - N/A   Mostly Cloudy
10:51 PM 33.1 °F 24.4 °F 27.0 °F 78% 29.88 in 10.0 mi WSW 11.5 mph - N/A   Scattered Clouds
11:51 PM 33.1 °F 26.1 °F 27.0 °F 78% 29.89 in 10.0 mi WSW 8.1 mph - N/A   Scattered Clouds